608  
ASUS41 KPHI 011110  
RWRPHI  
 
REGIONAL WEATHER ROUNDUP  
NATIONAL WEATHER SERVICE MOUNT HOLLY NJ  
600 AM EST FRI MAR 01 2024  
 
NOTE: "FAIR" INDICATES FEW OR NO CLOUDS BELOW 12,000 FEET WITH NO  
SIGNIFICANT WEATHER AND/OR S TO VISIBILITY
.  
 
* = STATION DOES NOT REPORT PRECIPITATION (E.G. RAIN, SNOW, ETC.)  
OR FOG.
 
 
NJZ015>026-011200-  
SOUTHERN NEW JERSEY  
 
CITY SKY/WX TMP DP RH WIND PRES REMARKS
 
POMONA CLEAR 25 16 68 CALM 30.60R  
WILDWOOD* CLEAR 27 21 78 CALM 30.61R  
MILLVILLE CLEAR 20 16 84 CALM 30.59R  
WRIGHTSTOWN CLEAR 24 17 74 CALM 30.59R  
MOUNT HOLLY N/A N/A N/A N/A MISG 30.60R  
TRENTON CLEAR 26 16 65 CALM 30.58R  
 

 
NJZ001>014-011200-  
NORTHERN NEW JERSEY  
 
CITY SKY/WX TMP DP RH WIND PRES REMARKS
 
SUSSEX CLEAR 21 14 74 CALM 30.55R  
ANDOVER* N/A 22 15 75 CALM 30.55R  
MORRISTOWN CLEAR 23 19 86 CALM 30.59R  
NEWARK PTCLDY 31 12 45 W3 30.59R  
TETERBORO CLEAR 28 13 53 CALM 30.58R  
CALDWELL CLEAR 26 14 60 CALM 30.59R  
SOMERVILLE CLEAR 22 18 85 CALM 30.58R  
ALLAIRE* CLEAR 28 17 63 CALM 30.61R  
TOMS RIVER* CLEAR 19 17 92 CALM 30.61R  
 

 
PAZ043-044-047-054-055-060>062-066>071-011200-  
EASTERN PENNSYLVANIA  
 
CITY SKY/WX TMP DP RH WIND PRES REMARKS
 
PHILADELPHIA CLEAR 31 16 54 CALM 30.60R  
NORTH PHILA CLEAR 28 17 63 CALM 30.61R  
BLUE BELL* CLEAR 23 20 90 CALM 30.59R  
DOYLESTOWN CLEAR 26 17 68 CALM 30.57R  
QUAKERTOWN* CLEAR 21 19 93 CALM 30.57R  
PERKASIE* PTCLDY 23 18 80 CALM 30.57R  
POTTSTOWN CLEAR 24 17 74 CALM 30.59R  
LANCASTER CLEAR 26 20 77 E3 30.57R  
COATESVILLE CLEAR 27 18 69 CALM 30.57R  
WEST CHESTER CLEAR 27 19 74 CALM 30.58R  
READING CLEAR 27 18 69 CALM 30.56R  
ALLENTOWN CLEAR 25 12 58 SE3 30.57R  
QN CITY/ALNTWN CLEAR 28 19 69 CALM 30.58R  
MOUNT POCONO CLEAR 17 10 74 W3 30.44R  
LEHIGHTON CLEAR 19 18 93 CALM 30.57R  
WILKES BARRE CLEAR 21 12 68 SE3 30.51R  
 

 
DEZALL-MDZ008-012-015-019-020-011200-  
DELAWARE AND EASTERN MARYLAND  
 
CITY SKY/WX TMP DP RH WIND PRES REMARKS
 
WILMINGTON CLEAR 25 20 81 CALM 30.60R  
DOVER CLEAR 30 21 69 CALM 30.58R  
CHESWOLD CLEAR 25 23 93 CALM 30.59R  
GEORGETOWN CLEAR 26 22 84 CALM 30.60R  
EASTON CLEAR 27 21 80 CALM 30.58R  
STEVENSVILLE CLEAR 31 28 89 E3 30.58R  
ABERDEEN CLEAR 25 20 80 CALM 30.59  
PATUXENT CLEAR 30 25 81 CALM 30.57R  
OCEAN CITY CLEAR 27 22 81 CALM 30.61R  
WALLOPS ISLAND NOT AVBL  
CAMBRIDGE CLEAR 27 27 100 CALM 30.59R  
SALISBURY CLEAR 25 21 85 CALM 30.60R  
 

 
PAZ001-021-NYZ056-072-MDZ011-DCZ001-011200-  
OTHER NEARBY LOCATIONS  
 
CITY SKY/WX TMP DP RH WIND PRES REMARKS
 
HARRISBURG CLEAR 27 21 78 E5 30.56R WCI 22  
STATE COLLEGE CLEAR 23 14 68 CALM 30.49R  
WILLIAMSPORT CLEAR 23 16 74 CALM 30.54R  
BINGHAMTON CLEAR 19 10 68 SW7 30.42R WCI 10  
NEW YORK CITY CLEAR 30 13 49 CALM 30.60R  
BALTIMORE CLEAR 26 18 71 CALM 30.57R  
WASHINGTON DC CLEAR 34 20 56 CALM 30.57R  
 

 
 
 
CLICK HERE TO GO TO PREVIOUS BULLETINS.

The Nexlab PA Page
The Nexlab NJ Page
The Nexlab DE Page
The Nexlab MD Page Main Text Page